Overview Statistics Trail Chart Weather Telemetry Raw packets
 

This is the latest recevied weather packets stored in our database for station/object OM4MO-10. If no packets are shown the sender has not sent any weather packets the latest 10 day(s).

<< 14 15 16 17 18 19 20 >>
Time Temp. Humidity Pressure Rain* Wind** Luminosity Snow
1788316040 10.56° C 78% 1023.2 hPa - - - -
1788315139 21.67° C 79% 754.7 hPa - - - -
1788314238 10.56° C 78% 1023 hPa - - - -
1788313338 21.67° C 79% 754.7 hPa - - - -
1788312437 10.56° C 78% 1023.1 hPa - - - -
1788311536 10° C 78% 1022.9 hPa - - - -
1788310635 21.67° C 79% 754.7 hPa - - - -
1788309734 21.67° C 79% 754.7 hPa - - - -
1788308833 21.67° C 79% 754.7 hPa - - - -
1788307933 10.56° C 78% 1022.9 hPa - - - -
1788307032 21.67° C 79% 754.7 hPa - - - -
1788306131 21.67° C 79% 754.7 hPa - - - -
1788305230 10.56° C 78% 1022.8 hPa - - - -
1788304330 11.11° C 78% 1022.9 hPa - - - -
1788303429 11.11° C 78% 1022.4 hPa - - - -
1788302528 21.67° C 79% 754.7 hPa - - - -
1788301627 21.67° C 79% 754.7 hPa - - - -
1788300727 21.67° C 79% 754.7 hPa - - - -
1788299827 21.67° C 79% 754.7 hPa - - - -
1788298927 21.67° C 79% 754.7 hPa - - - -
1788298027 12.22° C 78% 1022.1 hPa - - - -
1788297126 21.67° C 79% 754.7 hPa - - - -
1788296225 12.78° C 79% 1022.1 hPa - - - -
1788295325 21.67° C 79% 754.7 hPa - - - -
1788294424 21.67° C 79% 754.7 hPa - - - -

* Rain since midnight (hover to see other rain measurements)
** Current wind speed in m/s (hover to see current wind gust speed)